SB KEPS @ AMSAT $ORB26237.1 2Line Orbital Elements 26237.AMSAT QST de W1STR AMSAT Orbital Elements for Amateur Satellites in TLE Format From Orbital Analysis Office New England Sci-Tech STEM Education Center Natick MA August 25, 2026 To all radio amateurs These element sets describe the orbits of various satellites in use by the amateur radio community. For details see: www.amsat.org/keplerian-elements-formats/ A daily update of element sets is available at: www.amsat.org/tle/daily-bulletin.txt or without bulletin text: www.amsat.org/tle/dailytle.txt AO-07 1 07530U 74089B 26236.27892306 -.00000028 00000-0 11372-3 0 9997 2 07530 101.9921 250.2374 0012255 3.2594 7.1380 12.53699200369050 UO-11 1 14781U 84021B 26237.21715966 .00001178 00000-0 12501-3 0 9992 2 14781 97.8130 202.0534 0006636 326.7196 33.3604 14.90943922267414 LO-19 1 20442U 90005G 26237.04320253 .00000074 00000-0 42953-4 0 9993 2 20442 98.8841 260.7408 0011651 9.8689 350.2721 14.34139632912269 AO-27 1 22825U 93061C 26237.15414466 .00000065 00000-0 41650-4 0 9990 2 22825 98.6827 304.5237 0007272 255.9532 104.0843 14.30957215716869 FO-29 1 24278U 96046B 26237.29004477 .00000006 00000-0 44769-4 0 9991 2 24278 98.5187 76.6897 0348795 277.1417 79.0194 13.53277099482517 GO-32 1 25397U 98043D 26237.25344698 .00000046 00000-0 40207-4 0 9998 2 25397 99.0129 231.7725 0001954 49.7598 310.3751 14.24439700461168 ISS 1 25544U 98067A 26237.20913067 .00007851 00000-0 14728-3 0 9994 2 25544 51.6330 318.4690 0007682 81.0568 279.1290 15.49618182582451 NO-44 1 26931U 01043C 26235.97866662 .00000080 00000-0 60923-4 0 9999 2 26931 67.0496 68.9288 0005650 270.3796 89.6659 14.31977234300159 SO-50 1 27607U 02058C 26237.20295726 .00000820 00000-0 11405-3 0 9994 2 27607 64.5511 275.4310 0073069 249.8159 109.5078 14.83176088274695 CO-55 1 27844U 03031E 26237.01975038 .00000228 00000-0 11760-3 0 9995 2 27844 98.6766 244.7214 0009362 353.3744 6.7310 14.24371497201475 RS-22 1 27939U 03042A 26237.28198125 .00000282 00000-0 51592-4 0 9993 2 27939 98.3488 63.6080 0012400 53.0453 62.7605 14.73570859225725 CO-65 1 32785U 08021C 26237.17773236 .00004879 00000-0 30410-3 0 9991 2 32785 97.8338 220.0855 0009583 144.7972 215.3892 15.10004932995600 CO-66 1 32791U 08021J 26237.28663955 .00018950 00000-0 56126-3 0 9993 2 32791 97.7551 238.6141 0004732 80.4452 279.7325 15.34912912997885 RS-30 1 32953U 08025A 26237.22916263 .00000023 00000-0 94577-4 0 9999 2 32953 82.5064 312.5014 0020199 158.2546 201.9396 12.43182203828270 SRMSAT 1 37841U 11058D 26236.71223411 .00000371 00000-0 57345-4 0 9997 2 37841 19.9733 4.6952 0011610 238.1432 149.9765 14.11588232767517 ZACUBE-1 1 39417U 13066B 26236.85384148 .00005302 00000-0 40596-3 0 9997 2 39417 97.8038 199.5196 0041906 23.2843 337.0267 15.01612971691033 Delfi-N3xt 1 39428U 13066N 26237.23004142 .00007143 00000-0 61097-3 0 9999 2 39428 97.8291 157.4970 0072999 338.1926 21.6191 14.95858237684948 GOMX-1 1 39430U 13066Q 26237.22807552 .00001341 00000-0 20699-3 0 9994 2 39430 97.6453 73.3391 0127195 215.1278 144.1494 14.69630228680059 LO-74 1 39440U 13066AA 26237.11561591 .00002141 00000-0 19929-3 0 9996 2 39440 97.8944 186.4238 0057512 157.3239 203.0541 14.94158296687280 AO-73 1 39444U 13066AE 26237.17683318 .00007180 00000-0 43567-3 0 9991 2 39444 97.8340 210.1298 0034604 331.9300 28.0062 15.10346037690076 DTUSAT-2 1 40030U 14033W 26236.77663720 .00005840 00000-0 30956-3 0 9998 2 40030 98.0898 238.9146 0007995 14.7675 345.3788 15.15793640663075 LILACSAT-2 1 40908U 15049K 26237.30041787 .00017783 00000-0 27992-3 0 9998 2 40908 97.4596 276.8544 0006465 18.5820 341.5668 15.53631869606477 Lapan A3 1 41603U 16040E 26237.30251145 .00002842 00000-0 89960-4 0 9998 2 41603 97.1542 231.2152 0011780 121.9105 238.3285 15.33487479565408 CAS-2T 1 41847U 16066G 26237.21777179 .00000447 00000-0 72975-4 0 9993 2 41847 98.3779 312.1635 0340070 280.1339 76.1661 14.44814480514768 TechnoSat 1 42829U 17042E 26237.25654802 .00003513 00000-0 24910-3 0 9992 2 42829 97.4358 32.3373 0016782 214.7901 145.2230 15.05293401497098 AO-91 1 43017U 17073E 26237.18115931 .00009057 00000-0 38442-3 0 9997 2 43017 97.4605 102.9884 0149732 90.2020 271.6370 15.13607423475823 S-Net D 1 43186U 18014G 26236.60181985 .00004216 00000-0 21525-3 0 9994 2 43186 97.5280 140.9634 0009328 132.3402 227.8623 15.17217524469137 S-Net B 1 43187U 18014H 26237.20823462 .00004571 00000-0 23324-3 0 9998 2 43187 97.5282 141.5546 0010052 127.0512 233.1642 15.17191336469221 S-Net A 1 43188U 18014J 26237.19388980 .00004218 00000-0 21525-3 0 9997 2 43188 97.5296 141.7626 0009941 127.6643 232.5494 15.17231522469224 S-Net C 1 43189U 18014K 26237.21252563 .00004694 00000-0 23940-3 0 9999 2 43189 97.5314 141.8663 0011422 122.0873 238.1470 15.17181282467770 Ten-Koh 1 43677U 18084G 26237.09223480 .00002501 00000-0 18987-3 0 9990 2 43677 98.0749 72.3661 0008618 245.6632 114.3693 15.03178519426517 PO-101 1 43678U 18084H 26237.31922096 .00001083 00000-0 90721-4 0 9996 2 43678 98.1205 76.5699 0010473 302.1117 57.9088 15.00673797426584 QO-100 1 43700U 18090A 26237.19395493 .00000141 00000-0 00000-0 0 9991 2 43700 0.0189 132.2779 0002417 48.4391 248.3476 1.00271606 28364 MinXSS-2 1 43758U 18099A 26237.20156109 .00044650 00000-0 74875-3 0 9991 2 43758 97.4484 315.7307 0005984 21.3387 338.8113 15.51680953424810 AO-95 1 43770U 18099N 26237.12870356 .00010853 00000-0 39892-3 0 9991 2 43770 97.4330 297.1627 0010111 103.4878 256.7489 15.28031746423746 SNUSat 2 1 43782U 18099AA 26237.08809410 .00007458 00000-0 32168-3 0 9998 2 43782 97.4011 289.4359 0011334 60.3615 299.8749 15.22774734423516 SnugLite 1 43784U 18099AC 26237.10745642 .00009963 00000-0 36168-3 0 9996 2 43784 97.3816 290.7519 0004117 66.5933 293.5740 15.28503552423847 ITASat 1 1 43786U 18099AE 26237.10414704 .00005887 00000-0 27730-3 0 9996 2 43786 97.3981 287.2546 0014017 110.0255 250.2490 15.19807444423372 EAGLET 1 1 43790U 18099AJ 26237.09082510 .00003741 00000-0 21288-3 0 9994 2 43790 97.4179 284.9329 0012670 105.7286 254.5344 15.13384995422759 ESEO 1 43792U 18099AL 26237.09125631 .00001123 00000-0 84413-4 0 9990 2 43792 97.3941 271.5209 0013987 97.4806 262.8011 15.04426101422167 JO-97 1 43803U 18099AX 26236.62279797 .00015872 00000-0 45910-3 0 9998 2 43803 97.4076 299.7724 0006050 42.5314 317.6397 15.35682704424123 Suomi 100 1 43804U 18099AY 26237.11162415 .00011588 00000-0 40234-3 0 9996 2 43804 97.4135 297.2972 0010454 44.9203 315.2882 15.29877690423950 ISAT 1 43879U 18111D 26236.81004131 .00224826 00000-0 10458-2 0 9994 2 43879 97.5795 178.1080 0007969 100.9050 259.3115 15.82734650421954 UWE-4 1 43880U 18111E 26236.53339866 .00036871 00000-0 65113-3 0 9991 2 43880 97.5819 168.2810 0009919 81.4152 278.8223 15.50224981421353 Sparrow 1 43881U 18111F 26228.98401838 .16116594 28263-5 19760-3 0 9992 2 43881 97.5857 177.1140 0010462 202.8700 157.2139 16.49385238421037 Prox-1 1 44339U 19036A 26236.70519727 .00012570 00000-0 11798-2 0 9992 2 44339 23.9957 16.0169 0006144 104.5841 255.5341 14.92045441383712 Taurus 1 1 44530U 19059C 26237.28562421 .00004633 00000-0 73400-3 0 9993 2 44530 98.6475 46.4620 0009672 95.8341 264.3968 14.72719106368815 TO-108 1 44881U 19093C 26237.23984791 .00000909 00000-0 10838-3 0 9991 2 44881 97.7488 307.7727 0012449 214.7375 145.3030 14.86611229361671 RS-44 1 44909U 19096E 26237.19403233 .00000023 00000-0 49956-4 0 9998 2 44909 82.5211 293.8582 0217096 343.3233 16.0804 12.79748905311174 SALSAT 1 46495U 20068K 26237.26336136 .00007111 00000-0 24232-3 0 9990 2 46495 97.8877 244.5903 0011122 65.4484 294.7913 15.30667520325922 CSS (TIANHE-1) 1 48274U 21035A 26237.15701201 .00016413 00000-0 20680-3 0 9997 2 48274 41.4680 263.3320 0001652 251.6308 108.4351 15.59244825303933 TeikyoSat 4 1 49396U 21102B 26237.05604802 .00001306 00000-0 84677-4 0 9998 2 49396 97.3649 263.8610 0013465 60.1783 300.0784 15.09715576263112 Z-Sat 1 49399U 21102E 26237.32329766 .00001877 00000-0 93331-4 0 9994 2 49399 97.3298 270.5538 0016703 12.2891 347.8748 15.18726442263938 KOSEN 1 1 49402U 21102H 26237.06630760 .00006470 00000-0 24122-3 0 9994 2 49402 97.3144 277.9074 0012215 330.6118 29.4433 15.27701901264536 HO-113 1 50466U 21131B 26237.26415905 .00000207 00000-0 77461-4 0 9999 2 50466 98.4977 329.2791 0002953 243.7405 116.3480 14.41410399245060 SNUGLITE 2 1 52899U 22065F 26237.24715999 .00000821 00000-0 16425-3 0 9996 2 52899 98.2296 21.9964 0007919 158.3131 201.8408 14.64455159221103 UmKA 1 (RS40S) 1 57172U 23091G 26237.29514560 .00005517 00000-0 24802-3 0 9996 2 57172 97.4998 295.7368 0011149 233.1782 126.8431 15.21490129174519 CubeBel-2 (EU11S) 1 57175U 23091K 26237.25029605 .00013150 00000-0 44547-3 0 9996 2 57175 97.4999 301.1383 0008366 221.5539 138.5067 15.30668532174868 RS-38S 1 57189U 23091Z 26237.15577111 .00017956 00000-0 48151-3 0 9993 2 57189 97.5044 308.1039 0007263 171.0255 189.1120 15.38009329175289 SONATE-2 1 59112U 24043Q 26237.22762349 .00049849 00000-0 52797-3 0 9993 2 59112 97.5591 32.1704 0004770 305.9484 54.1332 15.63980479138668 GRBBeta 1 60237U 24128C 26237.23335334 .00003396 00000-0 23723-3 0 9992 2 60237 61.9920 333.9382 0030873 149.7393 210.5491 15.07068074116676 Curium One 1 60242U 24128H 26236.24429903 .00006804 00000-0 38746-3 0 9992 2 60242 61.9799 324.5650 0029965 145.3342 214.9715 15.13389983116754 ROBUSTA-3A 1 60243U 24128J 26237.24011853 .00006912 00000-0 40250-3 0 9998 2 60243 61.9880 323.8952 0031731 142.5119 217.8198 15.12522018116864 CatSat 1 60246U 24125J 26237.08672416 .00099802 00000-0 89563-3 0 9998 2 60246 97.2010 90.9174 0014495 281.2037 78.7595 15.67838486118158 HYPERVIEW-1G (RS66S) 1 61772U 24199AP 26230.11543498 .07890463 24672-5 93922-3 0 9997 2 61772 97.2456 114.2453 0006603 245.8477 114.2131 16.36574258144515 AO-123 1 61781U 24199AY 26237.27942017 .00007548 00000-0 21290-3 0 9991 2 61781 97.2898 105.3337 0015215 64.2589 296.0224 15.36574620144539 LASARsat 1 62391U 24247Q 26237.26126706 .00039985 00000-0 68502-3 0 9998 2 62391 44.9711 232.8238 0007731 54.5465 305.6148 15.50581210 94024 CroCube 1 62394U 24247T 26237.03134957 .00043022 00000-0 67126-3 0 9991 2 62394 44.9685 230.1372 0007916 62.8834 297.2865 15.53158446 94031 JINJUSat 1B 1 63210U 25052A 26237.20219210 .00016771 00000-0 48811-3 0 9990 2 63210 97.3903 134.1156 0003287 155.1810 204.9592 15.35487604 80683 NUSHSAT 1 1 63211U 25052B 26237.18803768 .00021775 00000-0 57438-3 0 9990 2 63211 97.3877 134.9310 0002867 151.0232 209.1172 15.38499131 80749 TEVEL2-4 1 63213U 25052D 26237.18269817 .00019145 00000-0 53287-3 0 9999 2 63213 97.3800 133.7659 0002027 157.7999 202.3333 15.36861865 80706 TEVEL2-5 1 63214U 25052E 26237.21178150 .00018880 00000-0 52910-3 0 9990 2 63214 97.3801 133.7215 0001856 158.8427 201.2894 15.36651607 80704 TEVEL2-6 1 63215U 25052F 26237.16056756 .00018645 00000-0 52314-3 0 9999 2 63215 97.3804 133.6553 0001759 157.9574 202.1746 15.36615911 80699 TEVEL2-1 1 63217U 25052H 26237.21540064 .00017945 00000-0 51363-3 0 9992 2 63217 97.3777 133.2480 0001330 181.0795 179.0446 15.36001106 80686 TEVEL2-3 1 63218U 25052J 26237.20717035 .00018194 00000-0 51952-3 0 9997 2 63218 97.3780 133.2718 0001181 166.8571 193.2704 15.36073075 80681 TEVEL2-2 1 63219U 25052K 26237.15005463 .00018119 00000-0 51841-3 0 9991 2 63219 97.3779 133.1859 0001283 183.1287 176.9949 15.36012064 80673 TEVEL2-9 1 63237U 25052AD 26236.17658937 .00015717 00000-0 48233-3 0 9994 2 63237 97.3841 131.4296 0003742 254.2042 105.8788 15.33824437 80449 TEVEL2-7 1 63238U 25052AE 26235.51388802 .00015154 00000-0 47057-3 0 9991 2 63238 97.3840 130.6525 0003641 257.9226 102.1608 15.33456949 80335 TEVEL2-8 1 63239U 25052AF 26236.50155594 .00015011 00000-0 46589-3 0 9993 2 63239 97.3842 131.6142 0003732 255.1503 104.9327 15.33475254 80487 SPIRONE 1 66657U 25274H 26237.05430049 .00001324 00000-0 13008-3 0 9990 2 66657 97.7469 165.3689 0012887 138.9840 221.2351 14.93780146 40509 K-HERO 1 66660U 25274L 26236.23654822 .00001504 00000-0 14554-3 0 9997 2 66660 97.7478 164.7731 0014612 146.1578 214.0578 14.94176250 40395 SNUGLITE-III DURI 1 66661U 25274M 26236.49099269 .00001657 00000-0 15972-3 0 9998 2 66661 97.7473 165.0449 0015278 146.6948 213.5237 14.94190725 40430 SAKHACUBE-CHOLBON 1 67290U 25313AU 26237.16746162 .00009552 00000-0 37358-3 0 9991 2 67290 97.3893 311.3762 0010660 110.4899 249.7485 15.25999510 36490 RS95S (QMR-KWT-2) 1 67291U 25313AV 26237.21167634 .00014197 00000-0 52252-3 0 9990 2 67291 97.3892 311.7652 0010218 108.8551 251.3797 15.27917595 36521 Ten-Koh2 1 68261U 25241B 26236.59529002 .00007134 00000-0 29812-3 0 9998 2 68261 51.6644 353.8573 0006634 8.9705 351.1391 15.24650253 25343 JACK-002 1 68417U 26067B 26236.83375404 .00006234 00000-0 29142-3 0 9996 2 68417 97.4624 194.6348 0003656 63.1405 297.0204 15.20132355 22379 DISCO 2 1 68431U 26067R 26235.94362687 .00007060 00000-0 33112-3 0 9992 2 68431 97.4652 193.7486 0004144 102.7841 257.3858 15.19971810 22230 HADES-SA (SpinnyONE) 1 68446U 26067AG 26237.13978974 .00016600 00000-0 74618-3 0 9999 2 68446 97.4448 194.5306 0006255 171.4602 188.6741 15.21187781 22407 PARUS-6U1 1 68456U 26067AS 26236.61846644 .00004962 00000-0 24627-3 0 9993 2 68456 97.4607 193.9824 0005616 166.1489 193.9900 15.18140677 22312 SAL-E 1 68458U 26067AU 26236.59743294 .00006402 00000-0 31241-3 0 9990 2 68458 97.4530 193.8673 0005453 174.2136 185.9163 15.18621312 22310 FSI-SAT 2 1 68792U 26088A 26236.87218691 .00003613 00000-0 24307-3 0 9999 2 68792 97.5158 24.4667 0013015 227.9872 132.0248 15.07297241 18631 OrigamiSat 2 1 68795U 26088D 26236.37663870 .00012170 00000-0 74881-3 0 9990 2 68795 97.5136 24.3597 0014557 200.1495 159.9161 15.10077752 18580 ARICA 2 1 68796U 26088E 26237.13985668 .00003994 00000-0 25673-3 0 9997 2 68796 97.5150 25.0138 0015022 196.3739 163.7006 15.08896656 18693 WASEDA-SAT-ZERO-II 1 68797U 26088F 26236.85597733 .00004929 00000-0 31240-3 0 9994 2 68797 97.5139 24.7744 0014886 197.1887 162.8840 15.09299466 18659 MANGARO-II-Piscus 1 68798U 26088G 26235.85115205 .00002874 00000-0 18424-3 0 9990 2 68798 97.5151 23.8310 0018255 205.0510 154.9835 15.09187075 18501 CO-128 1 69912U 26156AV 26237.20353363 .00001433 00000-0 15090-3 0 9991 2 69912 97.7503 136.7900 0002622 15.8526 344.2774 14.90895778 7281 MARINA 1 69920U 26156BD 26237.16526937 .00001829 00000-0 18550-3 0 9997 2 69920 97.7471 136.8217 0007600 5.3586 354.7713 14.92093311 7281 IO-86 1 40931U 26199.45381863 .00000000 00000-0 77536-4 0 07 2 40931 6.0006 322.6653 0012733 338.8432 273.6875 14.79294310 03 LILIUM-4 1 71922C 26067AC 26089.50133053 -.00014632 00000+0 -74472-3 0 04 2 71922 97.4497 49.1617 0004341 5.9603 355.7042 15.16896692 16 /EX